Location: Cedar Brake
(32.2526°N, 97.8459°W)
Time: 09:05:03
(UTC+00:00)

Cosmos 1048 Rocket - Pass Details

Date: 22 April 2026
Orbit: 739 x 786 km, 74.0° (Epoch: 14 May)

Event Time Altitude Azimuth Distance (km) Brightness Sun altitude
Rises 01:43:45 0° 351° (N) 3,195 7.7 -8.6°
Reaches altitude 10° 01:46:12 10° 357° (N) 2,274 6.8 -9.1°
Maximum altitude 01:51:09 46° 70° (ENE) 1,018 4.3 -10.0°
Drops below altitude 10° 01:56:07 10° 143° (SE) 2,292 6.0 -11.0°
Enters shadow 01:56:12 10° 144° (SE) 2,321 6.0 -11.0°
